Location: Champaign/Urbana Astronomical Society Observatory
(40.0333°N, 88.2833°W)
Time: 21:27:00
(UTC-05:00)

SO-50 - Visible Passes

Search period start: 20 May 2019 00:00
Search period end: 30 May 2019 00:00
Orbit: 586 x 701 km, 64.6° (Epoch: 20 May)

Date Brightness Start Highest point End Pass type
(mag) Time Alt. Az. Time Alt. Az. Time Alt. Az.
20 May ? 03:34:02 10° N 03:38:08 26° NE 03:42:08 10° ESE visible
20 May ? 21:09:04 10° W 21:12:26 18° NW 21:15:50 10° N visible
21 May ? 02:21:05 10° NNE 02:21:54 10° NNE 02:22:44 10° NE visible
21 May ? 03:58:42 10° NNW 04:03:31 54° NE 04:08:11 10° SE visible
22 May ? 02:44:10 10° N 02:47:42 19° NE 02:51:09 10° E visible
22 May ? 04:23:47 10° NW 04:28:38 65° WSW 04:33:19 10° SSE visible
23 May ? 03:08:37 10° NNW 03:13:13 38° NE 03:17:39 10° ESE visible
23 May ? 04:49:27 10° NW 04:53:29 26° WSW 04:57:24 10° SSW visible
23 May ? 20:45:25 10° WNW 20:47:40 13° NW 20:49:55 10° N visible
24 May ? 01:54:28 10° N 01:57:12 15° NE 01:59:54 10° ENE visible
24 May ? 03:33:31 10° NNW 03:38:26 86° ENE 03:43:11 10° SSE visible
25 May ? 02:18:37 10° NNW 02:22:50 28° NE 02:26:55 10° ESE visible
25 May ? 03:58:53 10° NW 04:03:24 39° WSW 04:07:46 10° S visible
26 May ? 01:05:13 10° NNE 01:06:39 11° NE 01:08:04 10° NE visible
26 May ? 02:43:20 10° NNW 02:48:11 59° NE 02:52:17 13° SE visible
26 May ? 04:25:11 10° WNW 04:28:07 16° WSW 04:29:44 14° SW visible
27 May ? 01:28:43 10° N 01:32:24 21° NE 01:36:00 10° E visible
27 May ? 03:08:28 10° NW 03:13:16 58° WSW 03:14:31 43° S visible
28 May ? 01:53:13 10° NNW 01:57:53 41° NE 01:59:52 27° ESE visible
28 May ? 03:34:14 10° WNW 03:37:25 23° W 03:37:25 23° W visible
29 May ? 00:38:58 10° N 00:41:55 16° NE 00:44:50 10° ENE visible
29 May ? 02:18:10 10° NNW 02:23:05 87° WSW 02:23:07 86° SW visible
